METEOR 1-17 DEB, 57957

Orbit data source: Space-Track

METEOR 1-17 DEB, 57957 is space debris in LEO originally from a Commonwealth of Independent States-origin launch on Wed, 24 Apr 1974 UTC launched from the Plesetsk Missile And Space Complex (PKMTR). Debris objects in space refer to the collection of defunct objects orbiting the Earth. Examples of debris include non-operational satellites, rocket bodies, and fragments generated from explosions, collisions, or faulty payload assembly.

Loading next visibility...
Identifier
57957, 1974-025N
Orbit
LEO
Country
Flag of CISCIS
Related business
Manufacturer
VNIIEM
Mission
Spacecraft
Bus & Motor
Unknown
Mass
Unknown
Launch date (UTC)
1974-04-24 (52 years ago)
Launch vehicle
Unknown
Launch site
Plesetsk Missile And Space Complex (PKMTR)
Object type
Payload
Rocket body
Debris
Shape & HBR
Unknown shape, 0.1 m
Radar Cross Section
Small (<0.1 m²)

Expand to show TLE details & history
Last TLE update: 2 weeks ago

TLE from 2 weeks ago
0 METEOR 1-17 DEB
1 57957U 74025N   26160.64490543  .00002821  00000-0  13118-2 0  9990
2 57957  81.2100 293.7460 0007720   5.3137 354.8120 14.20356944142674
Epoch: 2026-06-09T15:28Z
TLE epoch observation values (Epoch: 2026-06-09T15:28:39.829Z)
Latitude
0.00001°
Longitude
163.56561°
Altitude
821.52 km
Speed
7.445 km/s
True Right ascension
19h 34m 59s
True Declination
0° 00' 00"
Sunlit
Object was in full shadow at epoch
Visualization orbit readout
Latitude
Unknown
Longitude
Unknown
Altitude
Unknown
Speed
Unknown
Apparent Right ascension
Unknown
Apparent Declination
Unknown
Sunlit
N/A
Visualization observer readout
Local Sidereal Time
21:44:03
Azimuth
Unknown
Elevation
Unknown
Doppler factor
Unknown
Orbital elements
Apogee altitude
826.866 km
Perigee altitude
815.75 km
Semi-major axis
7,199.445 km
Eccentricity
0.00077
Inclination
81.21°
RAAN
293.746°
Arg. of periapsis
5.3137°
True anomaly
354.80399°
Mean anomaly
354.812°
Eccentric anomaly
354.808°
Mean motion
3.553 °/min
Orbital period
101.32 mins
BSTAR
0.0013118
Loading maneuver chart data...
Computing Atmospheric mass density...
Loading historical data...
Loading historical data...
Loading historical data...
Loading historical data...
Loading historical data...
Loading historical data...
Loading historical data...

Documentation

Showing up to 5 results
|